Date,TemperatureHighF,TemperatureAvgF,TemperatureLowF,DewpointHighF,DewpointAvgF,DewpointLowF,HumidityHigh,HumidityAvg,HumidityLow,PressureMaxIn,PressureMinIn,WindSpeedMaxMPH,WindSpeedAvgMPH,GustSpeedMaxMPH,PrecipitationSumIn
2013-1-1,49.5,34.6,22.1,22.1,12.8,6.3,73,46,20,30.17,30.07,12,3,20,0.00
2013-1-2,53.7,39.7,23.3,11.4,8.5,3.7,50,28,17,30.14,30.02,8,2,13,0.00
2013-1-3,55.6,37.6,18.5,13.3,8.0,3.0,59,32,15,30.18,30.06,9,2,16,0.00
2013-1-4,54.4,35.1,18.6,9.2,4.1,-1.8,48,29,15,30.24,30.10,3,0,7,0.00
2013-1-5,54.3,36.7,19.9,10.4,4.8,-1.2,43,27,15,30.25,30.04,3,0,6,0.00
2013-1-6,45.9,37.8,32.6,24.6,10.5,2.3,44,32,27,30.05,30.01,15,4,22,0.00
2013-1-18,62.5,42.2,23.7,11.3,6.8,0.8,45,25,12,30.23,30.08,6,1,13,0.00
2013-1-19,63.4,41.5,21.8,11.1,5.0,0.6,45,24,11,30.24,30.10,4,1,11,0.00
2013-1-20,64.2,41.3,22.1,10.5,3.4,-2.6,37,22,10,30.21,30.05,4,1,11,0.00
2013-1-21,66.7,42.9,23.3,8.5,2.4,-6.0,33,20,10,30.16,30.03,4,1,10,0.00
2013-1-22,65.5,42.6,20.6,10.9,3.3,-5.8,32,20,11,30.14,30.01,3,1,9,0.00
2013-1-23,62.4,47.5,33.4,15.1,9.6,3.0,36,22,14,30.10,29.97,3,0,8,0.00
2013-1-24,56.1,51.8,47.6,48.6,42.8,15.6,95,73,19,30.12,30.00,5,1,11,0.12
2013-1-25,56.4,51.8,48.7,50.4,47.4,44.6,97,86,68,30.13,29.93,4,0,10,0.13
2013-1-26,63.7,53.9,47.3,52.5,47.9,41.1,99,82,54,29.94,29.80,12,3,20,0.03
2013-1-27,51.8,45.5,42.0,41.0,30.0,20.5,87,57,33,29.90,29.83,20,9,28,0.00
2013-1-28,46.7,42.0,38.6,27.2,24.0,20.7,60,49,38,30.05,29.88,18,10,27,0.00
2013-1-29,59.2,46.3,37.3,31.5,28.6,25.1,68,52,30,30.14,29.97,17,5,27,0.00
2013-1-30,63.9,46.6,28.8,35.0,29.0,24.0,82,55,27,30.26,30.12,4,1,7,0.00
2013-1-31,66.3,47.9,31.1,34.8,29.7,25.4,82,54,27,30.21,30.06,4,1,9,0.00
2013-2-1,67.4,48.6,31.3,34.4,29.6,25.2,80,52,26,30.16,30.06,4,0,8,0.00
2013-2-2,65.2,53.0,39.9,43.4,32.7,28.3,68,49,26,30.20,30.09,5,0,8,0.00
2013-2-3,68.7,55.8,43.5,45.6,37.0,24.2,85,54,21,30.12,29.94,8,1,13,0.00
2013-2-4,70.0,51.5,34.4,32.4,26.5,22.4,69,41,19,30.05,29.91,4,0,10,0.00
2013-2-5,66.6,43.0,34.3,42.9,27.0,23.6,85,55,25,29.96,29.89,11,1,22,0.00
2013-2-6,66.3,50.2,37.7,42.0,32.5,21.2,84,56,21,29.99,29.88,11,4,20,0.00
2013-2-7,43.4,34.9,30.0,30.7,21.5,17.4,62,58,54,30.00,29.82,7,1,14,0.00
2013-2-8,48.6,40.6,36.3,31.4,28.3,24.9,73,62,44,29.81,29.73,14,8,23,0.00
2013-2-9,49.0,40.1,33.7,28.1,24.6,20.4,68,55,32,29.93,29.76,14,6,29,0.00
2013-2-10,50.7,36.8,32.0,27.3,21.0,18.4,60,53,29,29.95,29.90,5,1,7,0.00
2013-2-11,50.1,36.1,25.5,26.8,15.7,0.2,78,48,17,30.12,29.94,9,1,11,0.00
2013-2-12,52.2,34.4,23.2,14.8,7.5,0.8,46,33,18,30.24,30.11,2,0,6,0.00
2013-2-13,59.2,37.7,0.0,28.2,17.7,9.5,58,43,21,30.20,30.07,5,0,9,0.00
2013-2-14,68.2,48.5,28.8,24.9,20.7,17.0,63,37,17,30.17,30.04,12,2,19,0.00
2013-2-15,69.5,55.0,35.0,23.5,19.5,13.1,55,28,14,30.23,30.14,10,4,25,0.00
2013-2-16,68.3,50.0,31.9,20.2,14.8,10.8,43,27,13,30.20,29.97,8,1,13,0.00
2013-2-17,68.8,50.8,28.7,33.0,21.7,11.5,57,35,17,29.90,29.79,17,4,23,0.00
2013-2-18,65.7,48.7,29.9,36.5,28.1,21.7,77,49,24,29.94,29.79,19,4,23,0.00
2013-2-19,49.9,42.7,35.8,38.3,33.7,27.5,88,71,53,29.81,29.55,22,9,31,0.04
2013-2-20,47.6,40.4,33.0,28.1,23.4,17.6,81,52,33,29.86,29.54,25,11,33,0.00
2013-2-21,54.0,42.6,30.3,29.2,23.9,16.9,75,50,24,29.99,29.82,10,4,19,0.00
2013-2-22,59.4,39.1,26.6,27.2,23.6,20.6,81,58,22,30.10,30.00,3,1,13,0.00
2013-2-23,60.8,48.2,34.8,32.3,28.4,23.1,65,48,28,30.03,29.81,19,5,33,0.00
2013-2-24,56.4,45.1,33.4,26.3,4.7,-1.3,50,20,10,30.12,29.99,18,6,27,0.00
2013-2-25,65.7,46.2,23.9,19.6,8.8,-3.0,35,23,13,30.15,29.93,13,3,24,0.00
2013-2-26,62.5,51.7,39.9,25.3,15.4,2.3,53,26,13,30.10,29.94,13,4,22,0.00
2013-2-27,61.3,47.2,28.9,12.4,7.6,1.9,39,21,12,30.24,30.09,6,2,15,0.00
2013-2-28,67.5,48.0,28.1,14.3,9.9,2.6,44,24,10,30.31,30.21,6,1,11,0.00
2013-3-1,74.2,53.6,33.9,22.3,19.0,13.0,53,30,13,30.32,30.16,15,3,19,0.00
2013-3-2,75.3,56.9,32.1,26.6,19.7,9.4,42,25,15,30.22,30.01,7,2,17,0.00
2013-3-3,70.0,60.3,52.0,39.8,31.3,19.1,57,35,21,30.02,29.85,8,1,15,0.00
2013-3-4,70.4,59.5,49.3,40.7,35.2,27.0,67,44,21,29.98,29.88,4,0,11,0.00
2013-3-5,68.0,54.3,40.3,42.6,36.6,31.0,80,55,26,29.98,29.85,14,4,25,0.00
2013-3-6,56.3,48.2,41.0,41.3,38.2,34.6,82,69,54,29.97,29.87,20,5,27,0.00
2013-3-7,53.9,47.1,42.6,38.1,34.9,29.7,80,63,46,29.87,29.74,0,0,0,0.00
2013-3-8,48.6,42.3,35.0,38.0,35.2,31.9,95,77,58,29.86,29.66,8,1,15,0.32
2013-3-9,54.9,45.7,37.0,35.7,33.7,30.0,80,64,44,30.14,29.86,20,4,25,0.00
2013-3-10,67.0,47.3,28.6,34.6,24.9,16.1,88,53,14,30.25,30.10,7,2,12,0.00
2013-3-11,73.6,56.2,33.1,31.7,25.7,15.2,78,39,11,30.15,29.97,5,1,7,0.00
2013-3-12,76.5,50.7,0.0,30.2,26.5,21.6,66,41,13,30.09,29.97,7,0,11,0.00
2013-3-13,83.2,58.9,0.0,30.3,26.9,23.9,58,31,13,30.15,30.01,8,1,12,0.00
2013-3-14,86.8,58.2,41.1,37.4,29.9,25.3,58,37,13,30.11,29.95,4,1,14,0.00
2013-3-15,84.9,64.3,52.8,46.7,39.5,27.4,64,43,13,30.00,29.88,7,2,15,0.00
2013-3-16,77.4,66.3,54.4,44.2,36.1,24.9,58,35,15,29.89,29.79,12,2,22,0.00
2013-3-17,77.1,63.3,52.3,38.8,31.0,24.2,51,32,17,29.92,29.83,21,4,25,0.00
2013-3-18,76.1,65.2,53.0,31.0,25.1,16.4,41,23,12,29.95,29.86,8,1,17,0.00
2013-3-19,77.9,64.6,51.1,33.9,29.4,22.7,43,27,18,30.00,29.90,19,2,19,0.00
2013-3-20,73.9,63.1,53.1,41.1,36.5,28.4,60,39,20,29.98,29.89,14,1,20,0.00
2013-3-21,70.1,59.9,51.8,41.1,38.9,34.6,64,47,27,29.85,29.81,12,2,25,0.00
2013-3-22,71.0,56.3,49.6,37.2,33.3,28.8,57,44,21,29.85,29.70,9,1,19,0.00
2013-3-23,62.8,51.0,42.7,31.4,23.6,11.2,50,36,13,29.97,29.85,10,1,15,0.00
2013-3-24,67.9,55.0,42.9,26.2,14.9,9.4,30,21,10,29.99,29.87,7,2,13,0.00
2013-3-25,74.2,51.4,40.6,29.3,24.2,19.9,49,36,19,29.91,29.84,3,0,7,0.00
2013-3-26,77.2,59.8,47.7,34.0,29.0,19.8,53,33,12,29.86,29.77,10,1,16,0.00
2013-3-27,72.2,58.2,53.4,45.2,39.6,34.1,66,51,27,29.92,29.79,12,1,24,0.00
2013-3-28,56.5,52.2,50.0,43.0,42.1,36.5,74,69,47,29.98,29.89,0,0,7,0.00
2013-3-29,79.3,64.5,47.1,42.1,36.8,31.9,63,38,21,30.02,29.94,9,1,21,0.00
2013-3-30,77.2,63.3,52.7,41.2,32.8,25.1,46,33,18,30.01,29.91,5,0,11,0.00
2013-3-31,66.8,57.4,50.8,46.6,40.8,28.0,81,56,35,29.99,29.94,14,2,18,0.00
2013-4-1,65.2,54.7,45.5,45.5,40.2,34.6,87,61,33,30.01,29.91,10,3,20,0.00
2013-4-2,74.3,60.8,53.4,42.3,39.5,33.9,61,47,24,30.00,29.90,9,1,22,0.00
2013-4-3,82.2,65.3,46.8,40.3,35.9,29.5,67,38,15,30.02,29.90,11,2,18,0.00
2013-4-4,76.2,65.6,54.2,47.7,41.3,36.8,64,42,28,29.98,29.88,16,2,25,0.00
2013-4-5,70.0,61.1,53.1,48.9,43.3,28.7,83,54,30,29.97,29.88,13,2,27,0.00
2013-4-6,72.2,62.0,52.0,40.7,37.0,32.5,64,40,27,29.97,29.86,19,2,28,0.00
2013-4-7,73.4,62.8,54.6,42.8,37.6,31.1,60,41,23,29.89,29.72,14,2,29,0.00
2013-4-8,58.0,50.7,0.0,42.4,33.6,25.9,65,49,35,29.73,29.54,0,0,0,0.00
2013-4-9,68.5,55.8,39.4,34.0,25.2,17.6,57,34,15,29.97,29.73,8,2,19,0.00
2013-4-10,77.8,58.7,0.0,28.3,18.8,14.2,39,21,11,30.07,29.91,6,2,18,0.00
2013-4-11,80.2,66.5,52.4,43.6,37.0,25.8,48,35,22,29.91,29.66,11,1,28,0.00
2013-4-12,83.6,68.1,51.3,43.9,39.7,31.1,68,40,15,29.81,29.69,7,1,14,0.00
2013-4-13,80.5,68.0,57.1,46.9,39.1,26.7,60,38,15,29.78,29.64,13,1,23,0.00
2013-4-14,77.4,64.7,55.3,44.5,39.7,32.5,65,42,24,29.69,29.62,0,0,0,0.00
2013-4-15,64.4,55.3,48.3,44.5,39.3,29.1,82,57,27,29.72,29.64,0,0,0,0.00
2013-4-16,56.5,48.7,38.7,31.0,24.4,17.7,54,40,24,29.90,29.71,16,2,29,0.00
2013-4-17,65.0,53.0,37.0,23.6,20.2,14.2,53,29,17,30.07,29.90,10,2,16,0.00
2013-4-18,68.3,55.1,38.5,20.6,11.8,6.1,40,20,10,30.19,30.07,8,1,19,0.00
2013-4-19,79.6,59.8,35.9,25.8,16.9,4.3,33,20,9,30.15,29.91,16,2,21,0.00
2013-4-20,83.8,71.5,61.8,39.1,30.2,21.4,36,23,11,29.98,29.86,6,0,15,0.00
2013-4-21,89.2,69.9,47.3,37.5,31.6,16.8,52,27,10,29.94,29.83,19,2,27,0.00
2013-4-22,87.8,73.9,57.6,42.4,30.5,25.0,33,21,11,29.90,29.73,15,2,27,0.00
2013-4-23,79.1,69.3,56.2,39.5,25.5,17.2,50,22,11,29.93,29.75,7,0,20,0.00
2013-4-24,81.8,63.3,46.1,48.8,28.7,12.7,63,30,10,29.83,29.72,12,2,25,0.00
2013-4-25,76.5,63.0,50.8,46.1,41.9,34.3,78,51,27,29.96,29.78,5,0,24,0.00
2013-4-26,86.4,69.8,50.7,45.5,38.4,22.6,68,37,10,30.06,29.94,12,1,26,0.00
2013-4-27,90.5,73.7,58.2,41.8,37.1,26.0,50,29,10,30.08,29.93,10,2,22,0.00
2013-4-28,93.7,78.2,59.6,42.8,36.9,28.4,44,25,10,29.95,29.78,13,1,21,0.00
2013-4-29,92.9,77.6,61.5,42.1,33.5,27.2,33,21,11,29.83,29.68,10,1,16,0.00
2013-4-30,89.6,75.9,63.4,47.8,41.0,31.4,50,30,13,29.72,29.64,12,1,30,0.00
2013-5-1,82.3,69.2,52.7,42.2,19.0,-4.0,62,21,5,30.08,29.73,5,0,21,0.00
2013-5-2,80.0,68.0,55.5,5.7,2.0,-5.2,11,7,5,30.22,30.06,13,1,21,0.00
2013-5-3,89.2,68.3,42.7,27.5,8.9,-5.7,22,11,5,30.06,29.76,10,2,20,0.00
2013-5-4,83.1,69.3,53.7,37.2,30.0,21.6,37,24,13,29.77,29.60,10,0,21,0.00
2013-5-5,61.3,55.9,51.4,45.2,42.9,37.8,73,62,50,29.82,29.67,10,0,22,0.00
2013-5-6,62.9,55.1,49.8,51.4,45.4,42.3,95,71,49,29.88,29.78,0,0,0,0.06
2013-5-7,66.0,56.4,47.2,44.5,41.4,36.8,84,60,34,29.92,29.85,12,0,25,0.00
2013-5-8,73.2,60.3,49.3,46.8,44.0,40.4,83,58,32,29.97,29.90,7,1,16,0.00
2013-5-9,80.0,63.7,47.5,49.5,45.4,41.4,80,55,26,30.00,29.91,10,1,24,0.00
2013-5-10,87.5,73.7,61.4,50.1,46.3,37.3,61,41,17,30.03,29.93,6,1,18,0.00
2013-5-11,92.4,78.8,58.1,48.4,42.8,35.8,54,31,15,30.07,29.96,6,1,16,0.00
2013-5-12,96.3,80.7,60.9,51.5,43.2,32.9,56,31,11,30.08,29.91,10,2,15,0.00
2013-5-13,97.0,82.2,64.0,46.3,40.1,32.6,51,25,12,29.98,29.86,9,1,20,0.00
2013-5-14,87.0,75.6,59.8,43.2,34.1,18.7,41,24,9,29.90,29.80,6,0,15,0.00
2013-5-15,88.8,75.2,0.0,45.9,40.4,33.3,48,28,15,29.89,29.80,12,1,19,0.00
2013-5-16,81.2,68.9,59.7,42.1,38.8,35.3,52,34,21,29.84,29.77,12,0,19,0.00
2013-5-17,77.0,66.0,56.8,46.0,40.6,33.5,67,42,24,29.86,29.78,16,2,23,0.00
2013-5-18,82.0,69.5,55.5,36.8,30.8,20.2,45,26,13,29.92,29.83,12,1,24,0.00
2013-5-19,85.3,72.6,59.9,38.7,33.4,24.7,41,24,16,29.93,29.83,8,0,21,0.00
2013-5-20,87.0,72.9,52.8,40.1,31.0,23.0,47,24,11,29.98,29.85,6,1,17,0.00
2013-5-21,89.4,73.3,55.2,48.6,36.2,29.3,46,28,14,29.89,29.74,2,0,18,0.00
2013-5-22,76.5,64.6,54.3,41.4,29.5,18.3,41,28,12,29.76,29.67,19,1,23,0.00
2013-5-23,73.7,61.5,49.7,30.8,21.6,14.1,31,22,11,29.83,29.71,12,0,26,0.00
2013-5-24,79.0,64.0,48.8,44.2,30.8,20.3,50,31,13,29.87,29.80,12,1,21,0.00
2013-5-25,78.1,65.7,55.0,47.9,39.7,26.7,63,41,15,29.87,29.82,8,0,23,0.00
2013-5-26,75.8,63.6,55.3,39.2,37.2,34.1,52,38,25,29.91,29.85,0,0,0,0.00
2013-5-27,80.3,69.1,58.4,43.5,37.1,30.7,56,33,18,29.89,29.78,8,0,23,0.00
2013-5-28,72.7,65.8,57.8,49.1,45.6,35.6,67,49,34,29.80,29.67,6,1,14,0.00
2013-5-29,80.9,71.1,60.9,47.3,41.5,31.4,52,35,24,29.80,29.67,0,0,0,0.00
2013-5-30,91.5,75.2,58.9,43.3,37.1,28.6,51,28,11,29.83,29.72,11,1,19,0.00
2013-5-31,95.4,79.4,62.2,42.8,35.0,27.7,33,22,11,29.87,29.78,5,0,13,0.00
2013-6-1,99.2,82.0,61.4,42.0,37.2,29.4,44,23,9,29.87,29.72,7,1,15,0.00
2013-6-2,93.7,79.1,62.6,47.8,40.5,33.9,38,26,15,29.75,29.64,2,0,8,0.00
2013-6-3,89.4,76.4,61.2,42.6,38.5,30.9,46,27,15,29.76,29.66,2,0,19,0.00
2013-6-4,92.7,76.2,62.2,50.9,41.2,29.9,53,31,11,29.83,29.75,0,0,0,0.00
2013-6-5,98.1,79.5,64.9,50.3,45.2,36.4,53,33,13,29.86,29.77,12,1,21,0.00
2013-6-6,100.9,81.3,64.4,51.4,48.0,41.1,57,35,13,29.83,29.74,11,1,25,0.00
2013-6-7,98.0,75.8,63.7,52.4,49.7,47.0,59,43,19,29.80,29.75,3,0,11,0.00
2013-6-8,106.8,87.6,69.3,51.4,45.0,30.6,46,26,10,29.78,29.68,16,2,31,0.00
2013-6-9,93.7,81.8,69.0,44.8,36.5,24.8,33,22,10,29.80,29.75,6,0,14,0.00
2013-6-10,82.8,72.3,0.0,48.1,39.4,21.2,55,29,17,29.85,29.76,0,0,0,0.00
2013-6-11,76.5,65.8,59.8,43.1,40.4,37.9,44,40,26,29.87,29.81,0,0,0,0.00
2013-6-12,90.2,79.5,65.2,51.8,42.4,33.5,46,28,15,29.88,29.82,0,0,0,0.00
2013-6-13,89.3,76.8,62.4,41.7,31.5,20.0,37,22,9,29.92,29.82,0,0,0,0.00
2013-6-14,92.4,73.0,0.0,43.7,31.4,25.2,33,21,10,29.85,29.74,0,0,0,0.00
2013-6-15,88.5,73.6,58.8,45.2,36.2,22.0,42,28,9,29.86,29.77,0,0,0,0.00
2013-6-16,91.2,77.3,62.3,37.1,31.9,20.9,35,20,11,29.92,29.84,0,0,0,0.00
2013-6-17,92.3,79.4,64.9,39.4,35.7,29.7,34,22,11,29.91,29.82,0,0,0,0.00
2013-6-18,73.9,73.0,72.2,38.8,37.7,37.0,28,28,27,29.85,29.84,0,0,0,0.00
2013-6-23,87.9,76.1,65.7,45.9,38.2,30.1,38,26,15,29.76,29.68,0,0,0,0.00
2013-6-24,79.3,70.1,61.8,56.7,51.0,43.3,67,51,39,29.82,29.69,0,0,0,0.00
2013-6-25,91.6,77.6,61.9,56.5,51.9,49.1,66,43,27,29.87,29.82,0,0,0,0.00
2013-6-26,98.1,83.1,68.4,57.2,55.1,51.3,67,41,21,29.94,29.86,0,0,0,0.00
2013-6-27,101.3,86.1,71.5,58.2,55.3,51.3,62,38,19,29.99,29.92,0,0,0,0.00
2013-6-28,105.9,88.8,72.4,56.9,54.1,48.0,56,34,15,29.97,29.83,10,1,20,0.00
2013-6-29,108.1,90.7,74.6,54.7,51.9,48.2,47,29,14,29.89,29.76,3,0,9,0.00
2013-6-30,110.6,93.2,74.9,52.2,48.9,43.8,42,24,11,29.82,29.70,17,3,26,0.00
2013-7-1,103.0,88.0,73.2,52.7,50.0,44.9,43,28,17,29.85,29.74,17,2,25,0.00
2013-7-2,103.1,88.6,72.0,53.0,49.6,46.5,45,28,16,29.91,29.81,11,1,19,0.00
2013-7-3,104.3,90.8,78.3,55.0,50.5,46.0,33,26,17,29.85,29.70,13,1,22,0.00
2013-7-4,104.7,89.1,74.2,54.8,51.5,47.7,42,29,18,29.76,29.65,16,2,29,0.00
2013-7-5,98.4,85.0,72.5,54.4,52.3,49.2,48,34,22,29.74,29.66,6,0,11,0.00
2013-7-6,97.0,82.6,69.3,53.2,49.3,44.2,53,34,17,29.74,29.68,9,0,14,0.00
2013-7-7,101.5,86.4,68.0,49.7,43.9,37.9,52,26,13,29.81,29.71,6,1,22,0.00
2013-7-8,101.7,84.1,63.7,42.9,38.4,35.0,41,22,10,29.92,29.81,9,1,23,0.00
2013-7-9,103.8,85.7,62.3,44.3,37.9,31.3,33,20,11,29.98,29.88,14,3,27,0.00
2013-7-10,101.4,83.9,0.0,50.0,41.6,34.5,32,21,13,29.94,29.81,11,1,18,0.00
2013-7-11,88.0,80.2,73.0,53.5,48.6,39.6,49,34,19,29.91,29.81,0,0,0,0.00
2013-7-12,94.2,80.5,68.8,53.2,47.0,42.4,54,33,17,29.87,29.78,7,1,14,0.00
2013-7-13,99.4,84.1,64.6,45.0,42.0,37.4,41,25,15,29.90,29.80,12,3,20,0.00
2013-7-14,82.2,75.6,69.7,38.4,37.3,36.2,30,25,21,29.87,29.85,0,0,1,0.00
2013-7-15,83.2,80.9,78.5,36.3,35.2,33.9,21,19,17,29.82,29.81,1,1,3,0.00
2013-7-16,92.7,78.3,58.1,36.0,27.5,18.0,27,17,8,29.91,29.79,8,1,15,0.00
2013-7-17,98.0,80.9,65.3,46.1,37.6,27.2,49,24,10,29.97,29.89,0,0,0,0.00
2013-7-18,102.6,82.4,63.0,47.7,38.9,26.3,40,24,7,29.95,29.81,12,1,22,0.00
2013-7-19,104.3,86.1,69.8,46.7,40.7,34.9,33,22,10,29.86,29.75,12,2,23,0.00
2013-7-20,99.6,84.8,71.2,58.6,47.0,37.8,45,28,15,29.80,29.71,14,1,23,0.00
2013-7-21,92.7,82.4,74.5,59.9,54.1,43.5,55,39,27,29.88,29.74,10,1,16,0.00
2013-7-22,93.9,79.7,67.7,65.2,60.2,50.6,77,54,33,29.92,29.83,12,1,19,0.00
2013-7-23,95.4,81.9,69.6,65.6,58.6,52.0,79,48,29,29.95,29.83,6,1,19,0.00
2013-7-24,100.4,86.0,71.3,56.5,52.3,46.5,52,34,17,29.90,29.80,8,0,13,0.00
2013-7-25,101.9,87.9,70.1,52.2,49.5,46.0,46,28,17,29.93,29.84,14,2,27,0.00
2013-7-26,94.7,85.9,78.3,58.9,53.9,47.4,44,34,27,30.01,29.91,0,0,0,0.00
2013-7-27,97.2,82.8,73.2,59.7,54.2,51.5,49,38,27,29.95,29.78,4,0,12,0.00
2013-7-28,94.6,81.8,72.8,53.6,48.2,39.4,49,33,18,29.82,29.74,0,0,0,0.00
2013-7-29,92.4,80.2,69.5,38.5,33.2,27.4,31,19,10,29.94,29.79,0,0,0,0.00
2013-7-30,95.4,81.3,67.5,48.6,42.6,33.0,42,27,16,30.01,29.91,10,2,23,0.00
2013-7-31,96.5,80.8,62.5,45.8,39.0,19.8,44,25,10,30.00,29.88,11,3,22,0.00
2013-8-1,93.8,81.9,65.7,44.0,37.0,29.2,44,22,11,29.91,29.80,5,1,18,0.00
2013-8-2,93.8,77.1,63.4,45.9,37.1,29.1,39,25,10,29.88,29.80,10,2,16,0.00
2013-8-3,71.0,68.6,66.8,47.1,46.4,45.5,48,45,40,29.87,29.86,0,0,0,0.00
2013-8-4,95.1,79.4,59.2,40.6,34.0,20.6,43,22,7,29.91,29.84,5,1,13,0.00
2013-8-5,96.2,81.5,65.3,41.9,32.5,21.4,30,19,8,29.92,29.82,11,2,19,0.00
2013-8-6,93.7,78.4,64.3,43.7,33.9,16.9,45,22,10,29.92,29.85,0,0,0,0.00
2013-8-7,89.9,75.1,60.8,42.7,37.4,32.3,44,27,15,29.95,29.88,0,0,0,0.00
2013-8-8,88.0,75.5,63.0,50.0,42.0,24.0,60,34,10,29.91,29.82,0,0,0,0.00
2013-8-9,89.5,73.9,57.5,44.8,37.1,24.9,59,32,10,29.89,29.81,0,0,0,0.00
2013-8-10,90.6,76.3,59.5,45.5,41.6,35.5,52,31,16,29.93,29.85,0,0,0,0.00
2013-8-11,93.8,77.0,61.9,48.9,43.3,38.5,54,33,15,29.91,29.82,9,1,22,0.00
2013-8-12,97.5,80.2,62.0,44.2,41.6,33.5,50,28,11,29.90,29.81,11,1,24,0.00
2013-8-13,99.9,82.6,64.7,45.1,39.8,33.1,42,24,10,29.92,29.81,9,2,22,0.00
2013-8-14,101.8,79.8,0.0,43.1,38.1,30.6,40,23,10,29.89,29.79,11,1,19,0.00
2013-8-15,100.8,82.8,66.5,48.1,38.9,33.3,31,22,11,29.91,29.84,8,2,28,0.00
2013-8-16,98.9,85.2,67.7,52.5,44.1,37.5,36,24,18,29.92,29.84,12,1,18,0.00
2013-8-17,100.3,85.3,69.4,49.3,42.5,36.1,37,24,11,29.91,29.77,9,1,20,0.00
2013-8-18,101.5,83.7,65.9,57.8,48.1,41.4,46,30,18,29.90,29.77,15,3,29,0.00
2013-8-19,97.8,82.2,71.2,70.2,59.5,52.3,73,48,27,29.93,29.80,8,1,18,0.12
2013-8-20,97.5,80.9,65.3,62.2,50.2,39.4,69,39,15,29.87,29.79,11,1,24,0.00
2013-8-21,98.7,84.7,69.5,46.4,39.9,34.3,29,21,15,29.89,29.81,14,2,20,0.00
2013-8-22,97.0,85.7,71.8,45.0,37.0,25.2,27,18,14,29.91,29.79,4,0,9,0.00
2013-8-23,96.6,81.0,62.8,42.8,37.3,28.6,44,23,10,29.84,29.72,7,2,19,0.00
2013-8-24,94.6,78.2,55.9,44.9,37.2,26.8,49,27,9,29.84,29.72,7,1,10,0.00
2013-8-25,93.4,77.6,57.8,43.8,38.1,30.6,43,26,11,29.91,29.80,12,1,18,0.00
2013-8-26,89.4,76.7,63.1,65.5,54.1,33.8,78,47,29,29.95,29.81,8,1,16,0.00
2013-8-27,92.5,80.4,68.7,64.2,61.3,57.7,78,55,33,29.86,29.75,6,0,12,0.00
2013-8-28,95.8,81.1,0.0,58.9,54.9,48.9,62,40,27,29.89,29.78,13,1,21,0.00
2013-8-29,101.3,85.1,67.1,58.7,49.6,44.1,46,30,21,29.94,29.85,18,2,20,0.00
2013-8-30,97.9,84.2,72.0,64.9,57.6,49.7,58,42,26,29.99,29.86,14,1,29,0.00
2013-8-31,92.9,83.2,77.0,65.0,63.5,57.6,66,53,35,29.93,29.83,0,0,0,0.00
2013-9-1,92.3,80.9,73.9,65.1,62.1,58.5,72,55,34,29.90,29.81,0,0,0,0.00
2013-9-2,96.3,81.9,0.0,61.8,55.9,50.6,63,41,24,29.89,29.78,0,0,0,0.00
2013-9-3,96.6,84.2,71.8,59.6,55.2,50.4,62,39,24,29.90,29.81,8,1,21,0.00
2013-9-4,99.6,84.2,67.4,57.3,51.8,46.2,56,35,19,29.93,29.81,15,3,22,0.00
2013-9-5,99.9,84.5,68.4,53.1,48.6,45.0,48,30,17,29.90,29.81,15,2,22,0.00
2013-9-6,77.2,71.2,66.5,50.3,48.3,47.2,51,44,37,29.89,29.85,0,0,0,0.00
2013-9-7,99.8,80.7,0.0,44.5,41.2,37.6,39,22,15,29.89,29.76,7,2,23,0.00
2013-9-8,97.7,80.4,0.0,52.8,40.9,36.5,43,24,14,29.84,29.70,9,2,21,0.00
2013-9-9,78.3,77.5,76.5,52.0,51.3,50.9,41,40,39,29.81,29.80,0,0,0,0.00
2013-9-10,91.7,78.3,67.8,47.2,39.6,34.2,37,26,17,29.83,29.70,9,1,21,0.00
2013-9-11,92.2,78.0,67.7,50.6,42.7,33.8,39,29,19,29.89,29.82,8,1,21,0.00
2013-9-12,94.3,78.5,61.2,47.2,43.3,37.6,53,31,15,29.89,29.77,9,2,21,0.00
2013-9-13,95.8,78.8,0.0,49.5,44.7,39.2,41,29,18,29.82,29.65,7,2,18,0.00
2013-9-14,99.4,83.1,65.7,50.4,46.7,38.9,51,30,14,29.74,29.62,16,2,24,0.00
2013-9-15,76.4,72.1,69.2,50.3,49.0,48.2,49,44,40,29.70,29.69,1,0,5,0.00
2013-9-21,77.5,68.8,60.3,53.0,48.1,38.7,61,48,37,29.86,27.43,0,0,0,1.02
2013-9-22,72.7,61.9,54.3,46.2,40.5,35.5,63,47,27,29.96,29.84,0,0,0,0.00
2013-9-23,86.2,68.1,47.0,42.8,38.0,32.6,70,38,16,30.05,29.94,8,1,13,0.00
2013-9-24,89.7,71.3,53.0,39.9,35.5,30.0,57,30,12,30.02,29.88,12,2,21,0.00
2013-9-25,73.5,64.0,55.6,46.4,39.5,28.0,63,43,20,29.90,29.73,0,0,0,0.00
2013-9-26,66.8,57.2,0.0,38.4,32.3,25.1,64,39,21,29.96,29.76,0,0,0,0.00
2013-9-27,73.7,60.1,41.6,31.1,26.5,20.9,53,30,15,30.14,29.94,10,1,16,0.00
2013-9-28,80.7,62.7,40.6,28.4,22.8,16.1,48,24,11,30.16,30.05,7,1,11,0.00
2013-9-29,90.5,68.2,43.7,29.0,23.9,13.9,37,21,10,30.13,30.01,8,1,14,0.00
2013-9-30,86.8,70.6,56.5,44.4,35.9,27.6,56,30,16,30.06,29.92,13,2,18,0.00
2013-10-1,87.2,69.4,53.6,51.1,43.5,37.0,61,42,20,29.98,29.88,9,2,19,0.00
2013-10-2,84.2,69.0,59.4,51.6,44.4,33.2,70,45,16,29.97,29.88,17,1,25,0.00
2013-10-3,75.8,64.9,54.6,37.8,32.1,20.3,48,31,16,29.98,29.85,14,2,21,0.00
2013-10-4,72.2,61.6,49.5,29.0,16.7,11.6,41,19,11,30.23,30.00,15,2,21,0.00
2013-10-5,77.2,64.2,53.0,21.6,17.2,12.5,25,17,10,30.34,30.20,16,3,25,0.00
2013-10-6,82.4,63.5,42.6,22.2,15.7,10.2,35,17,9,30.27,30.08,7,1,16,0.00
2013-10-7,84.0,62.6,43.9,26.3,16.1,6.9,28,17,9,30.10,29.93,12,1,20,0.00
2013-10-8,76.8,63.5,54.0,48.6,31.9,16.5,76,35,17,29.97,29.78,0,0,0,0.00
2013-10-9,57.7,51.0,0.0,46.6,41.8,34.7,75,67,49,29.81,29.67,0,0,0,0.00
2013-10-10,69.3,53.4,37.9,41.1,36.0,32.3,81,55,28,30.01,29.81,12,2,18,0.00
2013-10-11,74.6,57.7,40.0,40.1,35.7,30.7,77,48,23,30.10,29.97,11,2,15,0.00
2013-10-12,78.1,58.9,0.0,43.8,34.8,29.5,66,41,19,30.03,29.89,11,2,26,0.00
2013-10-13,71.8,59.5,49.5,40.0,32.5,22.2,61,38,16,30.08,29.92,10,2,24,0.00
2013-10-14,72.9,58.1,40.6,35.2,29.3,21.6,68,38,18,30.19,30.03,7,2,16,0.00
2013-10-15,74.4,59.0,38.3,28.5,23.1,15.2,48,27,17,30.12,30.02,5,1,13,0.00
2013-10-16,72.4,58.2,0.0,24.5,20.1,12.1,35,22,14,30.22,30.09,4,0,8,0.00
2013-10-17,79.9,56.4,0.0,31.7,22.2,10.5,44,26,15,30.13,29.97,6,1,13,0.00
2013-10-18,79.6,60.7,42.6,29.0,23.8,15.5,51,28,12,30.16,30.03,6,0,15,0.00
2013-10-19,82.2,60.5,39.0,27.5,17.9,5.7,35,21,10,30.17,30.04,6,1,11,0.00
2013-10-20,84.1,62.1,40.0,26.9,20.7,13.7,41,23,9,30.08,29.94,8,1,13,0.00
2013-10-21,82.5,62.3,41.1,27.0,20.5,14.9,40,23,10,30.09,29.98,9,1,17,0.00
2013-10-22,82.6,62.7,41.4,25.6,18.2,8.4,33,19,11,30.12,29.97,6,1,14,0.00
2013-10-23,81.9,64.3,45.8,28.3,21.6,12.9,34,21,12,30.04,29.91,6,1,13,0.00
2013-10-24,83.8,63.8,42.3,31.5,25.0,18.6,44,25,12,30.07,29.96,8,1,15,0.00
2013-10-25,84.5,62.8,0.0,32.3,27.6,22.7,48,24,11,30.19,30.07,5,1,9,0.00
2013-10-26,84.0,63.9,42.6,29.4,24.2,17.5,40,24,11,30.21,30.06,9,1,12,0.00
2013-10-27,81.4,61.6,43.4,47.3,28.1,17.1,79,31,13,30.07,29.76,11,2,26,0.00
2013-10-28,59.8,51.1,0.0,47.7,41.4,35.5,85,67,40,29.90,27.50,0,0,0,0.01
2013-10-29,59.4,50.3,41.6,42.9,38.4,34.8,87,66,41,27.61,27.51,0,0,0,0.00
2013-10-30,63.9,51.6,37.3,38.4,33.3,26.2,81,53,27,27.73,27.61,5,1,11,0.00
2013-10-31,68.5,51.2,34.6,34.2,27.7,18.6,78,46,19,27.82,27.70,2,0,11,0.00
2013-11-1,74.2,55.3,35.3,29.3,23.1,14.6,52,30,18,27.85,27.69,5,0,14,0.00
2013-11-2,75.8,56.3,36.6,34.7,25.1,15.4,49,32,17,29.83,27.55,12,2,19,1.03
2013-11-3,72.5,55.9,0.0,41.5,36.2,32.7,60,46,27,29.81,29.70,13,3,24,0.00
2013-11-4,67.0,53.7,41.7,35.4,28.7,21.6,57,40,22,29.91,29.69,9,3,18,0.00
2013-11-5,63.0,48.9,34.5,24.4,15.3,4.4,60,30,13,30.15,29.92,5,1,8,0.00
2013-11-6,67.7,51.1,30.6,15.1,10.3,0.4,37,20,13,30.25,30.14,7,1,14,0.00
2013-11-7,70.9,52.8,34.4,22.5,14.4,3.7,33,22,14,30.16,29.99,2,0,6,0.00
2013-11-8,75.3,53.0,0.0,23.1,17.3,10.6,41,23,13,30.01,29.86,6,1,9,0.00
2013-11-9,75.1,54.5,38.7,22.6,15.7,7.3,40,23,11,30.02,29.91,4,1,7,0.00
2013-11-10,72.7,51.4,0.0,24.1,15.0,6.9,34,23,14,30.10,30.00,2,1,7,0.00
2013-11-11,44.2,44.2,44.2,14.0,14.0,14.0,29,29,29,30.04,30.04,0,0,3,0.00
2013-11-23,47.5,42.6,0.0,41.5,40.1,39.0,96,86,75,30.05,27.65,3,0,6,1.07
2013-11-24,55.0,47.7,38.4,42.3,39.6,36.0,94,75,55,30.11,30.02,6,1,8,0.00
2013-11-25,62.3,45.8,0.0,43.2,36.3,32.2,95,69,34,30.21,30.10,4,1,6,0.01
2013-11-26,62.9,48.7,34.9,42.8,36.2,32.5,92,66,35,30.20,30.03,5,1,14,0.00
2013-11-27,61.6,51.7,42.6,41.2,35.8,32.0,78,56,36,30.05,29.86,11,2,15,0.00
2013-11-28,59.5,48.4,0.0,39.1,34.8,32.2,82,58,40,30.00,29.86,6,2,13,0.00
2013-11-29,55.9,48.5,40.7,41.2,37.8,32.2,79,67,52,30.14,29.99,5,0,7,0.00
2013-11-30,64.0,49.4,37.0,42.5,36.5,32.7,92,65,32,30.17,30.06,5,1,9,0.00
2013-12-1,64.1,47.4,32.0,38.2,31.9,27.4,87,59,29,30.23,30.11,5,1,8,0.00
2013-12-2,67.3,50.0,34.3,36.0,29.0,23.2,78,49,20,30.13,29.82,11,1,15,0.00
2013-12-3,66.2,54.2,43.0,46.0,37.0,25.6,78,53,35,29.80,29.58,20,2,28,0.00
2013-12-4,47.7,40.6,34.1,29.3,17.8,12.9,61,41,25,29.88,29.67,10,4,25,0.00
2013-12-5,46.5,35.8,24.9,18.2,14.1,10.1,64,42,24,29.99,29.85,5,1,9,0.00
2013-12-6,50.8,34.8,20.2,31.3,15.3,2.7,71,47,19,30.03,29.91,17,4,24,0.00
2013-12-7,45.4,36.7,0.0,37.2,23.8,8.6,84,57,38,29.97,29.79,28,10,42,0.02
2013-12-8,42.6,33.0,23.8,20.7,15.0,8.6,74,49,28,30.13,29.96,6,1,13,0.00
2013-12-9,44.5,33.1,20.9,12.0,1.8,-6.5,64,30,13,30.34,30.12,11,4,23,0.00
2013-12-10,49.6,32.3,16.1,8.7,2.2,-5.6,51,29,13,30.33,30.08,4,1,7,0.00
2013-12-11,53.4,33.4,0.0,13.7,9.0,4.9,59,37,17,30.23,30.11,3,0,6,0.00
2013-12-12,57.1,38.7,21.7,18.0,13.8,8.0,62,38,19,30.18,30.06,4,0,7,0.00
2013-12-13,65.1,44.4,28.4,19.9,15.4,11.7,51,33,15,30.21,30.01,6,1,12,0.00
2013-12-14,60.1,44.6,26.4,22.5,16.9,11.9,59,35,19,30.33,30.20,7,2,15,0.00
2013-12-15,63.6,45.6,30.3,23.1,18.3,14.7,57,36,18,30.31,30.16,5,1,9,0.00
2013-12-16,62.3,45.8,33.2,26.2,22.1,18.8,58,41,24,30.24,30.12,4,0,5,0.00
2013-12-17,66.1,47.6,33.2,28.3,24.6,21.0,63,43,23,30.21,30.01,4,0,5,0.00
2013-12-18,50.3,45.1,42.0,29.4,27.1,24.7,55,49,42,30.02,29.93,4,1,6,0.00
2013-12-19,51.6,47.2,42.7,41.0,37.7,32.4,79,70,49,29.73,29.58,20,6,29,0.01
2013-12-20,54.3,42.6,31.2,34.6,27.8,20.0,87,59,28,29.85,29.73,5,1,13,0.00
2013-12-21,64.9,44.9,28.4,34.2,28.3,21.4,76,55,28,29.98,29.78,5,1,10,0.00
2013-12-22,60.8,44.3,29.3,33.7,27.9,24.3,81,56,28,30.22,29.97,3,0,6,0.00
2013-12-23,62.5,45.5,30.3,30.8,27.3,22.8,76,52,29,30.32,30.21,6,1,14,0.00
2013-12-24,65.2,46.6,29.6,32.3,27.4,20.6,77,50,27,30.25,30.12,2,0,4,0.00
2013-12-25,64.3,46.2,30.0,29.8,22.6,14.6,73,43,20,30.29,30.17,7,1,14,0.00
2013-12-26,63.7,41.7,25.8,21.1,15.6,8.1,61,38,17,30.25,30.13,2,0,6,0.00
2013-12-27,67.0,42.8,24.8,19.4,13.8,7.0,53,33,15,30.22,30.03,5,0,7,0.00
2013-12-28,72.7,48.6,33.6,21.6,13.9,6.3,50,27,11,30.02,29.87,9,0,15,0.00
2013-12-29,61.5,44.7,27.2,15.6,9.7,6.3,44,26,13,30.16,30.00,4,0,14,0.00
2013-12-30,61.2,40.6,0.0,14.3,8.2,3.9,46,27,13,30.23,30.11,3,0,6,0.00
2013-12-31,61.2,42.1,24.6,16.9,10.1,5.5,48,29,14,30.17,30.02,3,0,6,0.00
2014-1-1,66.4,45.2,28.1,19.5,13.4,6.9,45,29,15,30.17,30.05,3,1,7,0.00
2014-1-2,64.8,46.7,0.0,25.8,20.1,13.2,53,34,22,30.14,30.00,3,0,7,0.00